Year,Month,Day,Hour,Minute,Value (Times are PST for temperature in C)
2006,06,26,00,00,17.70
2006,06,26,00,01,17.70
2006,06,26,00,02,17.60
2006,06,26,00,03,17.60
2006,06,26,00,04,17.60
2006,06,26,00,05,17.60
2006,06,26,00,06,17.50
2006,06,26,00,07,17.50
2006,06,26,00,08,17.50
2006,06,26,00,09,17.40
2006,06,26,00,10,17.40
2006,06,26,00,11,17.30
2006,06,26,00,12,17.30
2006,06,26,00,13,17.30
2006,06,26,00,14,17.30
2006,06,26,00,15,17.30
2006,06,26,00,16,17.40
2006,06,26,00,17,17.40
2006,06,26,00,18,17.40
2006,06,26,00,19,17.40
2006,06,26,00,20,17.40
2006,06,26,00,21,17.40
2006,06,26,00,22,17.50
2006,06,26,00,23,17.50
2006,06,26,00,24,17.50
2006,06,26,00,25,17.50
2006,06,26,00,26,17.60
2006,06,26,00,27,17.60
2006,06,26,00,28,17.60
2006,06,26,00,29,17.60
2006,06,26,00,30,17.60
2006,06,26,00,31,17.50
2006,06,26,00,32,17.50
2006,06,26,00,33,17.50
2006,06,26,00,34,17.50
2006,06,26,00,35,17.40
2006,06,26,00,36,17.40
2006,06,26,00,37,17.30
2006,06,26,00,38,17.30
2006,06,26,00,39,17.30
2006,06,26,00,40,17.30
2006,06,26,00,41,17.20
2006,06,26,00,42,17.20
2006,06,26,00,43,17.10
2006,06,26,00,44,17.10
2006,06,26,00,45,17.10
2006,06,26,00,46,17.10
2006,06,26,00,47,17.00
2006,06,26,00,48,17.00
2006,06,26,00,49,16.90
2006,06,26,00,50,16.90
2006,06,26,00,51,16.90
2006,06,26,00,52,16.80
2006,06,26,00,53,16.80
2006,06,26,00,54,16.80
2006,06,26,00,55,16.80
2006,06,26,00,56,16.80
2006,06,26,00,57,16.70
2006,06,26,00,58,16.70
2006,06,26,00,59,16.70
2006,06,26,01,00,16.70
2006,06,26,01,01,16.70
2006,06,26,01,02,16.70
2006,06,26,01,03,16.70
2006,06,26,01,04,16.70
2006,06,26,01,05,16.70
2006,06,26,01,06,16.70
2006,06,26,01,07,16.60
2006,06,26,01,08,16.60
2006,06,26,01,09,16.60
2006,06,26,01,10,16.60
2006,06,26,01,11,16.50
2006,06,26,01,12,16.40
2006,06,26,01,13,16.40
2006,06,26,01,14,16.40
2006,06,26,01,15,16.40
2006,06,26,01,16,16.40
2006,06,26,01,17,16.40
2006,06,26,01,18,16.40
2006,06,26,01,19,16.40
2006,06,26,01,20,16.40
2006,06,26,01,21,16.40
2006,06,26,01,22,16.40
2006,06,26,01,23,16.40
2006,06,26,01,24,16.40
2006,06,26,01,25,16.40
2006,06,26,01,26,16.40
2006,06,26,01,27,16.40
2006,06,26,01,28,16.40
2006,06,26,01,29,16.40
2006,06,26,01,30,16.40
2006,06,26,01,31,16.40
2006,06,26,01,32,16.40
2006,06,26,01,33,16.40
2006,06,26,01,34,16.30
2006,06,26,01,35,16.30
2006,06,26,01,36,16.30
2006,06,26,01,37,16.30
2006,06,26,01,38,16.30
2006,06,26,01,39,16.30
2006,06,26,01,40,16.30
2006,06,26,01,41,16.20
2006,06,26,01,42,16.20
2006,06,26,01,43,16.20
2006,06,26,01,44,16.20
2006,06,26,01,45,16.20
2006,06,26,01,46,16.20
2006,06,26,01,47,16.20
2006,06,26,01,48,16.20
2006,06,26,01,49,16.10
2006,06,26,01,50,16.10
2006,06,26,01,51,16.10
2006,06,26,01,52,16.10
2006,06,26,01,53,16.10
2006,06,26,01,54,16.10
2006,06,26,01,55,16.10
2006,06,26,01,56,16.10
2006,06,26,01,57,16.10
2006,06,26,01,58,16.10
2006,06,26,01,59,16.10
2006,06,26,02,00,16.00
2006,06,26,02,01,15.90
2006,06,26,02,02,15.90
2006,06,26,02,03,15.90
2006,06,26,02,04,15.90
2006,06,26,02,05,15.80
2006,06,26,02,06,15.80
2006,06,26,02,07,15.80
2006,06,26,02,08,15.80
2006,06,26,02,09,15.80
2006,06,26,02,10,15.80
2006,06,26,02,11,15.80
2006,06,26,02,12,15.80
2006,06,26,02,13,15.80
2006,06,26,02,14,15.80
2006,06,26,02,15,15.80
2006,06,26,02,16,15.80
2006,06,26,02,17,15.80
2006,06,26,02,18,15.80
2006,06,26,02,19,15.80
2006,06,26,02,20,15.80
2006,06,26,02,21,15.80
2006,06,26,02,22,15.70
2006,06,26,02,23,15.70
2006,06,26,02,24,15.70
2006,06,26,02,25,15.70
2006,06,26,02,26,15.70
2006,06,26,02,27,15.70
2006,06,26,02,28,15.70
2006,06,26,02,29,15.70
2006,06,26,02,30,15.60
2006,06,26,02,31,15.70
2006,06,26,02,32,15.60
2006,06,26,02,33,15.60
2006,06,26,02,34,15.60
2006,06,26,02,35,15.60
2006,06,26,02,36,15.60
2006,06,26,02,37,15.60
2006,06,26,02,38,15.60
2006,06,26,02,39,15.60
2006,06,26,02,40,15.60
2006,06,26,02,41,15.60
2006,06,26,02,42,15.60
2006,06,26,02,43,15.60
2006,06,26,02,44,15.60
2006,06,26,02,45,15.50
2006,06,26,02,46,15.50
2006,06,26,02,47,15.50
2006,06,26,02,48,15.50
2006,06,26,02,49,15.40
2006,06,26,02,50,15.40
2006,06,26,02,51,15.40
2006,06,26,02,52,15.40
2006,06,26,02,53,15.30
2006,06,26,02,54,15.30
2006,06,26,02,55,15.30
2006,06,26,02,56,15.30
2006,06,26,02,57,15.30
2006,06,26,02,58,15.30
2006,06,26,02,59,15.30
2006,06,26,03,00,15.30
2006,06,26,03,01,15.30
2006,06,26,03,02,15.30
2006,06,26,03,03,15.20
2006,06,26,03,04,15.20
2006,06,26,03,05,15.20
2006,06,26,03,06,15.20
2006,06,26,03,07,15.20
2006,06,26,03,08,15.10
2006,06,26,03,09,15.10
2006,06,26,03,10,15.10
2006,06,26,03,11,15.10
2006,06,26,03,12,15.10
2006,06,26,03,13,15.10
2006,06,26,03,14,15.10
2006,06,26,03,15,15.10
2006,06,26,03,16,15.00
2006,06,26,03,17,15.00
2006,06,26,03,18,15.00
2006,06,26,03,19,15.00
2006,06,26,03,20,15.00
2006,06,26,03,21,15.00
2006,06,26,03,22,15.00
2006,06,26,03,23,15.00
2006,06,26,03,24,15.00
2006,06,26,03,25,15.00
2006,06,26,03,26,15.00
2006,06,26,03,27,15.00
2006,06,26,03,28,15.00
2006,06,26,03,29,14.90
2006,06,26,03,30,14.90
2006,06,26,03,31,14.90
2006,06,26,03,32,14.90
2006,06,26,03,33,14.80
2006,06,26,03,34,14.80
2006,06,26,03,35,14.80
2006,06,26,03,36,14.80
2006,06,26,03,37,14.80
2006,06,26,03,38,14.80
2006,06,26,03,39,14.70
2006,06,26,03,40,14.70
2006,06,26,03,41,14.70
2006,06,26,03,42,14.70
2006,06,26,03,43,14.60
2006,06,26,03,44,14.60
2006,06,26,03,45,14.60
2006,06,26,03,46,14.60
2006,06,26,03,47,14.60
2006,06,26,03,48,14.60
2006,06,26,03,49,14.60
2006,06,26,03,50,14.60
2006,06,26,03,51,14.60
2006,06,26,03,52,14.60
2006,06,26,03,53,14.50
2006,06,26,03,54,14.50
2006,06,26,03,55,14.50
2006,06,26,03,56,14.50
2006,06,26,03,57,14.50
2006,06,26,03,58,14.50
2006,06,26,03,59,14.40
2006,06,26,04,00,14.40
2006,06,26,04,01,14.40
2006,06,26,04,02,14.40
2006,06,26,04,03,14.30
2006,06,26,04,04,14.30
2006,06,26,04,05,14.30
2006,06,26,04,06,14.30
2006,06,26,04,07,14.30
2006,06,26,04,08,14.30
2006,06,26,04,09,14.30
2006,06,26,04,10,14.20
2006,06,26,04,11,14.20
2006,06,26,04,12,14.20
2006,06,26,04,13,14.20
2006,06,26,04,14,14.20
2006,06,26,04,15,14.30
2006,06,26,04,16,14.30
2006,06,26,04,17,14.30
2006,06,26,04,18,14.30
2006,06,26,04,19,14.30
2006,06,26,04,20,14.30
2006,06,26,04,21,14.30
2006,06,26,04,22,14.30
2006,06,26,04,23,14.30
2006,06,26,04,24,14.30
2006,06,26,04,25,14.30
2006,06,26,04,26,14.30
2006,06,26,04,27,14.30
2006,06,26,04,28,14.30
2006,06,26,04,29,14.20
2006,06,26,04,30,14.20
2006,06,26,04,31,14.20
2006,06,26,04,32,14.20
2006,06,26,04,33,14.20
2006,06,26,04,34,14.20
2006,06,26,04,35,14.20
2006,06,26,04,36,14.20
2006,06,26,04,37,14.10
2006,06,26,04,38,14.10
2006,06,26,04,39,14.00
2006,06,26,04,40,14.00
2006,06,26,04,41,14.00
2006,06,26,04,42,13.90
2006,06,26,04,43,13.90
2006,06,26,04,44,13.90
2006,06,26,04,45,13.80
2006,06,26,04,46,13.80
2006,06,26,04,47,13.70
2006,06,26,04,48,13.70
2006,06,26,04,49,13.70
2006,06,26,04,50,13.70
2006,06,26,04,51,13.70
2006,06,26,04,52,13.70
2006,06,26,04,53,13.70
2006,06,26,04,54,13.70
2006,06,26,04,55,13.70
2006,06,26,04,56,13.70
2006,06,26,04,57,13.70
2006,06,26,04,58,13.60
2006,06,26,04,59,13.70
2006,06,26,05,00,13.70
2006,06,26,05,01,13.70
2006,06,26,05,02,13.70
2006,06,26,05,03,13.70
2006,06,26,05,04,13.70
2006,06,26,05,05,13.70
2006,06,26,05,06,13.70
2006,06,26,05,07,13.70
2006,06,26,05,08,13.70
2006,06,26,05,09,13.70
2006,06,26,05,10,13.70
2006,06,26,05,11,13.60
2006,06,26,05,12,13.60
2006,06,26,05,13,13.60
2006,06,26,05,14,13.60
2006,06,26,05,15,13.60
2006,06,26,05,16,13.60
2006,06,26,05,17,13.60
2006,06,26,05,18,13.60
2006,06,26,05,19,13.50
2006,06,26,05,20,13.50
2006,06,26,05,21,13.50
2006,06,26,05,22,13.50
2006,06,26,05,23,13.50
2006,06,26,05,24,13.40
2006,06,26,05,25,13.40
2006,06,26,05,26,13.40
2006,06,26,05,27,13.40
2006,06,26,05,28,13.40
2006,06,26,05,29,13.40
2006,06,26,05,30,13.40
2006,06,26,05,31,13.40
2006,06,26,05,32,13.40
2006,06,26,05,33,13.40
2006,06,26,05,34,13.40
2006,06,26,05,35,13.40
2006,06,26,05,36,13.40
2006,06,26,05,37,13.30
2006,06,26,05,38,13.30
2006,06,26,05,39,13.30
2006,06,26,05,40,13.30
2006,06,26,05,41,13.30
2006,06,26,05,42,13.30
2006,06,26,05,43,13.30
2006,06,26,05,44,13.30
2006,06,26,05,45,13.20
2006,06,26,05,46,13.20
2006,06,26,05,47,13.20
2006,06,26,05,48,13.20
2006,06,26,05,49,13.20
2006,06,26,05,50,13.20
2006,06,26,05,51,13.20
2006,06,26,05,52,13.20
2006,06,26,05,53,13.20
2006,06,26,05,54,13.20
2006,06,26,05,55,13.30
2006,06,26,05,56,13.30
2006,06,26,05,57,13.30
2006,06,26,05,58,13.30
2006,06,26,05,59,13.30
2006,06,26,06,00,13.30
2006,06,26,06,01,13.30
2006,06,26,06,02,13.30
2006,06,26,06,03,13.30
2006,06,26,06,04,13.30
2006,06,26,06,05,13.30
2006,06,26,06,06,13.30
2006,06,26,06,07,13.30
2006,06,26,06,08,13.30
2006,06,26,06,09,13.30
2006,06,26,06,10,13.30
2006,06,26,06,11,13.30
2006,06,26,06,12,13.30
2006,06,26,06,13,13.30
2006,06,26,06,14,13.30
2006,06,26,06,15,13.30
2006,06,26,06,16,13.30
2006,06,26,06,17,13.30
2006,06,26,06,18,13.30
2006,06,26,06,19,13.30
2006,06,26,06,20,13.30
2006,06,26,06,21,13.30
2006,06,26,06,22,13.30
2006,06,26,06,23,13.30
2006,06,26,06,24,13.30
2006,06,26,06,25,13.30
2006,06,26,06,26,13.30
2006,06,26,06,27,13.30
2006,06,26,06,28,13.30
2006,06,26,06,29,13.30
2006,06,26,06,30,13.30
2006,06,26,06,31,13.30
2006,06,26,06,32,13.30
2006,06,26,06,33,13.40
2006,06,26,06,34,13.50
2006,06,26,06,35,13.50
2006,06,26,06,36,13.60
2006,06,26,06,37,13.70
2006,06,26,06,38,13.80
2006,06,26,06,39,13.90
2006,06,26,06,40,13.90
2006,06,26,06,41,14.00
2006,06,26,06,42,14.20
2006,06,26,06,43,14.20
2006,06,26,06,44,14.40
2006,06,26,06,45,14.50
2006,06,26,06,46,14.60
2006,06,26,06,47,14.70
2006,06,26,06,48,14.70
2006,06,26,06,49,14.90
2006,06,26,06,50,15.10
2006,06,26,06,51,15.10
2006,06,26,06,52,15.30
2006,06,26,06,53,15.40
2006,06,26,06,54,15.50
2006,06,26,06,55,15.60
2006,06,26,06,56,15.70
2006,06,26,06,57,16.00
2006,06,26,06,58,16.20
2006,06,26,06,59,16.30
2006,06,26,07,00,16.40
2006,06,26,07,01,16.60
2006,06,26,07,02,16.70
2006,06,26,07,03,16.90
2006,06,26,07,04,17.00
2006,06,26,07,05,17.10
2006,06,26,07,06,17.20
2006,06,26,07,07,17.30
2006,06,26,07,08,17.30
2006,06,26,07,09,17.40
2006,06,26,07,10,17.40
2006,06,26,07,11,17.50
2006,06,26,07,12,17.50
2006,06,26,07,13,17.60
2006,06,26,07,14,17.60
2006,06,26,07,15,17.70
2006,06,26,07,16,17.70
2006,06,26,07,17,17.90
2006,06,26,07,18,18.00
2006,06,26,07,19,18.20
2006,06,26,07,20,18.20
2006,06,26,07,21,18.30
2006,06,26,07,22,18.40
2006,06,26,07,23,18.40
2006,06,26,07,24,18.50
2006,06,26,07,25,18.50
2006,06,26,07,26,18.60
2006,06,26,07,27,18.80
2006,06,26,07,28,18.90
2006,06,26,07,29,19.00
2006,06,26,07,30,19.10
2006,06,26,07,31,19.10
2006,06,26,07,32,19.10
2006,06,26,07,33,19.10
2006,06,26,07,34,19.10
2006,06,26,07,35,19.10
2006,06,26,07,36,19.10
2006,06,26,07,37,19.10
2006,06,26,07,38,19.10
2006,06,26,07,39,19.10
2006,06,26,07,40,19.20
2006,06,26,07,41,19.20
2006,06,26,07,42,19.30
2006,06,26,07,43,19.30
2006,06,26,07,44,19.40
2006,06,26,07,45,19.40
2006,06,26,07,46,19.50
2006,06,26,07,47,19.60
2006,06,26,07,48,19.60
2006,06,26,07,49,19.70
2006,06,26,07,50,19.80
2006,06,26,07,51,19.90
2006,06,26,07,52,19.90
2006,06,26,07,53,20.00
2006,06,26,07,54,20.10
2006,06,26,07,55,20.20
2006,06,26,07,56,20.20
2006,06,26,07,57,20.20
2006,06,26,07,58,20.30
2006,06,26,07,59,20.40
2006,06,26,08,00,20.50
2006,06,26,08,01,20.50
2006,06,26,08,02,20.50
2006,06,26,08,03,20.60
2006,06,26,08,04,20.70
2006,06,26,08,05,20.70
2006,06,26,08,06,20.70
2006,06,26,08,07,20.80
2006,06,26,08,08,20.80
2006,06,26,08,09,20.80
2006,06,26,08,10,20.80
2006,06,26,08,11,20.70
2006,06,26,08,12,20.80
2006,06,26,08,13,20.80
2006,06,26,08,14,20.80
2006,06,26,08,15,20.80
2006,06,26,08,16,20.80
2006,06,26,08,17,20.90
2006,06,26,08,18,20.90
2006,06,26,08,19,20.90
2006,06,26,08,20,21.00
2006,06,26,08,21,21.00
2006,06,26,08,22,21.00
2006,06,26,08,23,21.10
2006,06,26,08,24,21.10
2006,06,26,08,25,21.20
2006,06,26,08,26,21.20
2006,06,26,08,27,21.20
2006,06,26,08,28,21.30
2006,06,26,08,29,21.30
2006,06,26,08,30,21.30
2006,06,26,08,31,21.40
2006,06,26,08,32,21.40
2006,06,26,08,33,21.50
2006,06,26,08,34,21.60
2006,06,26,08,35,21.60
2006,06,26,08,36,21.70
2006,06,26,08,37,21.70
2006,06,26,08,38,21.80
2006,06,26,08,39,21.80
2006,06,26,08,40,21.90
2006,06,26,08,41,21.90
2006,06,26,08,42,21.90
2006,06,26,08,43,21.90
2006,06,26,08,44,22.00
2006,06,26,08,45,22.00
2006,06,26,08,46,22.00
2006,06,26,08,47,22.10
2006,06,26,08,48,22.20
2006,06,26,08,49,22.30
2006,06,26,08,50,22.40
2006,06,26,08,51,22.50
2006,06,26,08,52,22.50
2006,06,26,08,53,22.50
2006,06,26,08,54,22.60
2006,06,26,08,55,22.70
2006,06,26,08,56,22.70
2006,06,26,08,57,22.80
2006,06,26,08,58,22.80
2006,06,26,08,59,22.90
2006,06,26,09,00,22.90
2006,06,26,09,01,23.00
2006,06,26,09,02,23.10
2006,06,26,09,03,23.20
2006,06,26,09,04,23.30
2006,06,26,09,05,23.30
2006,06,26,09,06,23.40
2006,06,26,09,07,23.50
2006,06,26,09,08,23.60
2006,06,26,09,09,23.70
2006,06,26,09,10,23.70
2006,06,26,09,11,23.70
2006,06,26,09,12,23.70
2006,06,26,09,13,23.80
2006,06,26,09,14,23.80
2006,06,26,09,15,23.90
2006,06,26,09,16,24.00
2006,06,26,09,17,24.10
2006,06,26,09,18,24.10
2006,06,26,09,19,24.20
2006,06,26,09,20,24.30
2006,06,26,09,21,24.30
2006,06,26,09,22,24.40
2006,06,26,09,23,24.50
2006,06,26,09,24,24.60
2006,06,26,09,25,24.70
2006,06,26,09,26,24.90
2006,06,26,09,27,25.00
2006,06,26,09,28,25.20
2006,06,26,09,29,25.30
2006,06,26,09,30,25.40
2006,06,26,09,31,25.50
2006,06,26,09,32,25.60
2006,06,26,09,33,25.60
2006,06,26,09,34,25.70
2006,06,26,09,35,25.80
2006,06,26,09,36,25.80
2006,06,26,09,37,25.90
2006,06,26,09,38,26.00
2006,06,26,09,39,26.00
2006,06,26,09,40,26.10
2006,06,26,09,41,26.20
2006,06,26,09,42,26.30
2006,06,26,09,43,26.30
2006,06,26,09,44,26.30
2006,06,26,09,45,26.30
2006,06,26,09,46,26.30
2006,06,26,09,47,26.20
2006,06,26,09,48,26.00
2006,06,26,09,49,26.00
2006,06,26,09,50,26.00
2006,06,26,09,51,26.00
2006,06,26,09,52,26.00
2006,06,26,09,53,25.90
2006,06,26,09,54,25.90
2006,06,26,09,55,25.90
2006,06,26,09,56,26.00
2006,06,26,09,57,26.00
2006,06,26,09,58,26.10
2006,06,26,09,59,26.20
2006,06,26,10,00,26.30
2006,06,26,10,01,26.40
2006,06,26,10,02,26.50
2006,06,26,10,03,26.60
2006,06,26,10,04,26.60
2006,06,26,10,05,26.70
2006,06,26,10,06,26.70
2006,06,26,10,07,26.80
2006,06,26,10,08,27.00
2006,06,26,10,09,27.10
2006,06,26,10,10,27.20
2006,06,26,10,11,27.30
2006,06,26,10,12,27.30
2006,06,26,10,13,27.30
2006,06,26,10,14,27.20
2006,06,26,10,15,27.10
2006,06,26,10,16,27.10
2006,06,26,10,17,27.00
2006,06,26,10,18,26.90
2006,06,26,10,19,26.80
2006,06,26,10,20,26.70
2006,06,26,10,21,26.60
2006,06,26,10,22,26.60
2006,06,26,10,23,26.60
2006,06,26,10,24,26.60
2006,06,26,10,25,26.60
2006,06,26,10,26,26.50
2006,06,26,10,27,26.40
2006,06,26,10,28,26.50
2006,06,26,10,29,26.60
2006,06,26,10,30,26.60
2006,06,26,10,31,26.70
2006,06,26,10,32,26.80
2006,06,26,10,33,26.80
2006,06,26,10,34,26.80
2006,06,26,10,35,26.80
2006,06,26,10,36,26.80
2006,06,26,10,37,26.80
2006,06,26,10,38,26.80
2006,06,26,10,39,26.90
2006,06,26,10,40,27.00
2006,06,26,10,41,27.30
2006,06,26,10,42,27.40
2006,06,26,10,43,27.60
2006,06,26,10,44,27.70
2006,06,26,10,45,27.80
2006,06,26,10,46,27.90
2006,06,26,10,47,28.00
2006,06,26,10,48,28.00
2006,06,26,10,49,28.10
2006,06,26,10,50,28.10
2006,06,26,10,51,28.10
2006,06,26,10,52,28.00
2006,06,26,10,53,27.80
2006,06,26,10,54,27.80
2006,06,26,10,55,27.70
2006,06,26,10,56,27.70
2006,06,26,10,57,27.70
2006,06,26,10,58,27.70
2006,06,26,10,59,27.80
2006,06,26,11,00,27.80
2006,06,26,11,01,27.80
2006,06,26,11,02,27.80
2006,06,26,11,03,27.80
2006,06,26,11,04,27.80
2006,06,26,11,05,27.90
2006,06,26,11,06,28.00
2006,06,26,11,07,28.00
2006,06,26,11,08,28.00
2006,06,26,11,09,28.10
2006,06,26,11,10,28.10
2006,06,26,11,11,28.10
2006,06,26,11,12,28.20
2006,06,26,11,13,28.20
2006,06,26,11,14,28.20
2006,06,26,11,15,28.20
2006,06,26,11,16,28.10
2006,06,26,11,17,28.10
2006,06,26,11,18,28.20
2006,06,26,11,19,28.30
2006,06,26,11,20,28.40
2006,06,26,11,21,28.40
2006,06,26,11,22,28.50
2006,06,26,11,23,28.60
2006,06,26,11,24,28.60
2006,06,26,11,25,28.80
2006,06,26,11,26,28.80
2006,06,26,11,27,28.90
2006,06,26,11,28,29.00
2006,06,26,11,29,29.10
2006,06,26,11,30,29.20
2006,06,26,11,31,29.20
2006,06,26,11,32,29.20
2006,06,26,11,33,29.20
2006,06,26,11,34,29.20
2006,06,26,11,35,29.30
2006,06,26,11,36,29.30
2006,06,26,11,37,29.30
2006,06,26,11,38,29.40
2006,06,26,11,39,29.60
2006,06,26,11,40,29.70
2006,06,26,11,41,29.70
2006,06,26,11,42,29.70
2006,06,26,11,43,29.60
2006,06,26,11,44,29.40
2006,06,26,11,45,29.30
2006,06,26,11,46,29.20
2006,06,26,11,47,29.20
2006,06,26,11,48,29.30
2006,06,26,11,49,29.30
2006,06,26,11,50,29.20
2006,06,26,11,51,29.30
2006,06,26,11,52,29.40
2006,06,26,11,53,29.50
2006,06,26,11,54,29.50
2006,06,26,11,55,29.50
2006,06,26,11,56,29.40
2006,06,26,11,57,29.30
2006,06,26,11,58,29.30
2006,06,26,11,59,29.30
2006,06,26,12,00,29.40
2006,06,26,12,01,29.50
2006,06,26,12,02,29.60
2006,06,26,12,03,29.70
2006,06,26,12,04,29.60
2006,06,26,12,05,29.60
2006,06,26,12,06,29.50
2006,06,26,12,07,29.30
2006,06,26,12,08,29.20
2006,06,26,12,09,29.10
2006,06,26,12,10,29.10
2006,06,26,12,11,29.30
2006,06,26,12,12,29.20
2006,06,26,12,13,29.20
2006,06,26,12,14,29.20
2006,06,26,12,15,29.20
2006,06,26,12,16,29.10
2006,06,26,12,17,28.90
2006,06,26,12,18,28.90
2006,06,26,12,19,28.90
2006,06,26,12,20,28.90
2006,06,26,12,21,29.00
2006,06,26,12,22,29.10
2006,06,26,12,23,29.10
2006,06,26,12,24,29.10
2006,06,26,12,25,29.00
2006,06,26,12,26,28.90
2006,06,26,12,27,28.90
2006,06,26,12,28,28.90
2006,06,26,12,29,28.90
2006,06,26,12,30,28.90
2006,06,26,12,31,28.90
2006,06,26,12,32,28.90
2006,06,26,12,33,29.10
2006,06,26,12,34,29.20
2006,06,26,12,35,29.30
2006,06,26,12,36,29.30
2006,06,26,12,37,29.30
2006,06,26,12,38,29.40
2006,06,26,12,39,29.40
2006,06,26,12,40,29.50
2006,06,26,12,41,29.50
2006,06,26,12,42,29.60
2006,06,26,12,43,29.60
2006,06,26,12,44,29.50
2006,06,26,12,45,29.40
2006,06,26,12,46,29.40
2006,06,26,12,47,29.40
2006,06,26,12,48,29.40
2006,06,26,12,49,29.30
2006,06,26,12,50,29.40
2006,06,26,12,51,29.50
2006,06,26,12,52,29.60
2006,06,26,12,53,29.60
2006,06,26,12,54,29.70
2006,06,26,12,55,29.80
2006,06,26,12,56,29.80
2006,06,26,12,57,29.90
2006,06,26,12,58,29.90
2006,06,26,12,59,29.80
2006,06,26,13,00,29.80
2006,06,26,13,01,29.80
2006,06,26,13,02,29.80
2006,06,26,13,03,29.80
2006,06,26,13,04,29.90
2006,06,26,13,05,29.80
2006,06,26,13,06,29.80
2006,06,26,13,07,29.90
2006,06,26,13,08,30.00
2006,06,26,13,09,30.10
2006,06,26,13,10,30.30
2006,06,26,13,11,30.40
2006,06,26,13,12,30.30
2006,06,26,13,13,30.30
2006,06,26,13,14,30.30
2006,06,26,13,15,30.30
2006,06,26,13,16,30.30
2006,06,26,13,17,30.30
2006,06,26,13,18,30.30
2006,06,26,13,19,30.40
2006,06,26,13,20,30.40
2006,06,26,13,21,30.60
2006,06,26,13,22,30.70
2006,06,26,13,23,30.50
2006,06,26,13,24,30.30
2006,06,26,13,25,30.30
2006,06,26,13,26,30.30
2006,06,26,13,27,30.30
2006,06,26,13,28,30.30
2006,06,26,13,29,30.30
2006,06,26,13,30,30.30
2006,06,26,13,31,30.30
2006,06,26,13,32,30.30
2006,06,26,13,33,30.40
2006,06,26,13,34,30.50
2006,06,26,13,35,30.60
2006,06,26,13,36,30.60
2006,06,26,13,37,30.40
2006,06,26,13,38,30.30
2006,06,26,13,39,30.40
2006,06,26,13,40,30.40
2006,06,26,13,41,30.40
2006,06,26,13,42,30.40
2006,06,26,13,43,30.40
2006,06,26,13,44,30.60
2006,06,26,13,45,30.60
2006,06,26,13,46,30.70
2006,06,26,13,47,30.80
2006,06,26,13,48,30.80
2006,06,26,13,49,30.80
2006,06,26,13,50,30.80
2006,06,26,13,51,30.90
2006,06,26,13,52,31.00
2006,06,26,13,53,31.00
2006,06,26,13,54,31.00
2006,06,26,13,55,31.00
2006,06,26,13,56,31.20
2006,06,26,13,57,31.20
2006,06,26,13,58,31.20
2006,06,26,13,59,31.20
2006,06,26,14,00,31.20
2006,06,26,14,01,31.10
2006,06,26,14,02,30.90
2006,06,26,14,03,30.80
2006,06,26,14,04,30.90
2006,06,26,14,05,30.90
2006,06,26,14,06,31.00
2006,06,26,14,07,31.00
2006,06,26,14,08,31.00
2006,06,26,14,09,31.00
2006,06,26,14,10,31.10
2006,06,26,14,11,31.30
2006,06,26,14,12,31.30
2006,06,26,14,13,31.30
2006,06,26,14,14,31.30
2006,06,26,14,15,31.30
2006,06,26,14,16,31.30
2006,06,26,14,17,31.30
2006,06,26,14,18,31.40
2006,06,26,14,19,31.40
2006,06,26,14,20,31.40
2006,06,26,14,21,31.40
2006,06,26,14,22,31.40
2006,06,26,14,23,31.50
2006,06,26,14,24,31.60
2006,06,26,14,25,31.60
2006,06,26,14,26,31.60
2006,06,26,14,27,31.70
2006,06,26,14,28,31.70
2006,06,26,14,29,31.80
2006,06,26,14,30,31.80
2006,06,26,14,31,31.70
2006,06,26,14,32,31.50
2006,06,26,14,33,31.30
2006,06,26,14,34,31.20
2006,06,26,14,35,31.10
2006,06,26,14,36,31.10
2006,06,26,14,37,31.00
2006,06,26,14,38,31.00
2006,06,26,14,39,31.00
2006,06,26,14,40,31.00
2006,06,26,14,41,30.80
2006,06,26,14,42,30.70
2006,06,26,14,43,30.30
2006,06,26,14,44,30.10
2006,06,26,14,45,30.00
2006,06,26,14,46,29.90
2006,06,26,14,47,29.90
2006,06,26,14,48,29.70
2006,06,26,14,49,29.60
2006,06,26,14,50,29.50
2006,06,26,14,51,29.40
2006,06,26,14,52,29.40
2006,06,26,14,53,29.50
2006,06,26,14,54,29.70
2006,06,26,14,55,29.80
2006,06,26,14,56,29.80
2006,06,26,14,57,29.80
2006,06,26,14,58,29.70
2006,06,26,14,59,29.60
2006,06,26,15,00,29.50
2006,06,26,15,01,29.50
2006,06,26,15,02,29.50
2006,06,26,15,03,29.50
2006,06,26,15,04,29.50
2006,06,26,15,05,29.70
2006,06,26,15,06,29.80
2006,06,26,15,07,29.80
2006,06,26,15,08,29.90
2006,06,26,15,09,29.90
2006,06,26,15,10,29.90
2006,06,26,15,11,30.10
2006,06,26,15,12,30.20
2006,06,26,15,13,30.30
2006,06,26,15,14,30.30
2006,06,26,15,15,30.30
2006,06,26,15,16,30.30
2006,06,26,15,17,30.30
2006,06,26,15,18,30.30
2006,06,26,15,19,30.30
2006,06,26,15,20,30.30
2006,06,26,15,21,30.30
2006,06,26,15,22,30.30
2006,06,26,15,23,30.30
2006,06,26,15,24,30.20
2006,06,26,15,25,30.20
2006,06,26,15,26,30.20
2006,06,26,15,27,30.20
2006,06,26,15,28,30.20
2006,06,26,15,29,30.30
2006,06,26,15,30,30.30
2006,06,26,15,31,30.30
2006,06,26,15,32,30.30
2006,06,26,15,33,30.30
2006,06,26,15,34,30.40
2006,06,26,15,35,30.30
2006,06,26,15,36,30.30
2006,06,26,15,37,30.30
2006,06,26,15,38,30.30
2006,06,26,15,39,30.40
2006,06,26,15,40,30.40
2006,06,26,15,41,30.40
2006,06,26,15,42,30.60
2006,06,26,15,43,30.60
2006,06,26,15,44,30.70
2006,06,26,15,45,30.70
2006,06,26,15,46,30.70
2006,06,26,15,47,30.60
2006,06,26,15,48,30.60
2006,06,26,15,49,30.60
2006,06,26,15,50,30.60
2006,06,26,15,51,30.70
2006,06,26,15,52,30.70
2006,06,26,15,53,30.70
2006,06,26,15,54,30.70
2006,06,26,15,55,30.70
2006,06,26,15,56,30.70
2006,06,26,15,57,30.80
2006,06,26,15,58,30.80
2006,06,26,15,59,30.90
2006,06,26,16,00,30.90
2006,06,26,16,01,30.90
2006,06,26,16,02,31.00
2006,06,26,16,03,31.00
2006,06,26,16,04,31.00
2006,06,26,16,05,31.00
2006,06,26,16,06,31.00
2006,06,26,16,07,31.00
2006,06,26,16,08,31.00
2006,06,26,16,09,31.00
2006,06,26,16,10,31.10
2006,06,26,16,11,31.20
2006,06,26,16,12,31.20
2006,06,26,16,13,31.10
2006,06,26,16,14,31.20
2006,06,26,16,15,31.20
2006,06,26,16,16,31.10
2006,06,26,16,17,31.10
2006,06,26,16,18,31.10
2006,06,26,16,19,31.20
2006,06,26,16,20,31.20
2006,06,26,16,21,31.10
2006,06,26,16,22,31.10
2006,06,26,16,23,31.10
2006,06,26,16,24,31.00
2006,06,26,16,25,31.00
2006,06,26,16,26,31.00
2006,06,26,16,27,31.10
2006,06,26,16,28,31.20
2006,06,26,16,29,31.20
2006,06,26,16,30,31.20
2006,06,26,16,31,31.20
2006,06,26,16,32,31.20
2006,06,26,16,33,31.30
2006,06,26,16,34,31.30
2006,06,26,16,35,31.30
2006,06,26,16,36,31.30
2006,06,26,16,37,31.30
2006,06,26,16,38,31.30
2006,06,26,16,39,31.40
2006,06,26,16,40,31.40
2006,06,26,16,41,31.40
2006,06,26,16,42,31.40
2006,06,26,16,43,31.40
2006,06,26,16,44,31.40
2006,06,26,16,45,31.40
2006,06,26,16,46,31.40
2006,06,26,16,47,31.50
2006,06,26,16,48,31.60
2006,06,26,16,49,31.60
2006,06,26,16,50,31.60
2006,06,26,16,51,31.60
2006,06,26,16,52,31.70
2006,06,26,16,53,31.70
2006,06,26,16,54,31.70
2006,06,26,16,55,31.70
2006,06,26,16,56,31.70
2006,06,26,16,57,31.70
2006,06,26,16,58,31.70
2006,06,26,16,59,31.60
2006,06,26,17,00,31.70
2006,06,26,17,01,31.80
2006,06,26,17,02,31.90
2006,06,26,17,03,31.90
2006,06,26,17,04,31.90
2006,06,26,17,05,31.80
2006,06,26,17,06,31.90
2006,06,26,17,07,31.90
2006,06,26,17,08,31.90
2006,06,26,17,09,31.90
2006,06,26,17,10,31.80
2006,06,26,17,11,31.80
2006,06,26,17,12,31.80
2006,06,26,17,13,31.80
2006,06,26,17,14,31.90
2006,06,26,17,15,31.90
2006,06,26,17,16,31.90
2006,06,26,17,17,31.90
2006,06,26,17,18,31.90
2006,06,26,17,19,31.80